TimeEET,TemperatureF,Dew PointF,Humidity,Sea Level PressureIn,VisibilityMPH,Wind Direction,Wind SpeedMPH,Gust SpeedMPH,PrecipitationIn,Events,Conditions,WindDirDegrees,DateUTC
12:50 AM,42.8,32.0,66,30.39,-9999.0,Calm,Calm,-,N/A,,Clear,0,2013-03-05 22:50:00
1:50 AM,42.8,32.0,66,30.39,-9999.0,Calm,Calm,-,N/A,,Clear,0,2013-03-05 23:50:00
2:50 AM,39.2,30.2,70,-9999,-9999.0,Calm,Calm,-,N/A,,Clear,0,2013-03-06 00:50:00
3:50 AM,39.2,30.2,70,30.36,-9999.0,NNW,5.8,-,N/A,,Clear,330,2013-03-06 01:50:00
4:50 AM,39.2,32.0,75,30.33,-9999.0,Calm,Calm,-,N/A,,Clear,0,2013-03-06 02:50:00
5:20 AM,37.4,30.2,75,30.33,-9999.0,Calm,Calm,-,N/A,,Clear,0,2013-03-06 03:20:00
5:50 AM,37.4,32.0,81,30.33,-9999.0,Calm,Calm,-,N/A,,Clear,0,2013-03-06 03:50:00
6:20 AM,37.4,32.0,81,30.33,-9999.0,Calm,Calm,-,N/A,,Clear,0,2013-03-06 04:20:00
6:50 AM,37.4,30.2,75,30.33,-9999.0,Calm,Calm,-,N/A,,Clear,0,2013-03-06 04:50:00
7:20 AM,37.4,32.0,81,30.33,-9999.0,Calm,Calm,-,N/A,,Clear,0,2013-03-06 05:20:00
7:50 AM,39.2,33.8,81,30.33,-9999.0,Calm,Calm,-,N/A,,Clear,0,2013-03-06 05:50:00
8:20 AM,42.8,35.6,76,30.33,-9999.0,Calm,Calm,-,N/A,,Clear,0,2013-03-06 06:20:00
8:50 AM,44.6,37.4,76,30.33,-9999.0,Calm,Calm,-,N/A,,Clear,0,2013-03-06 06:50:00
9:20 AM,48.2,37.4,66,30.33,-9999.0,Calm,Calm,-,N/A,,Clear,0,2013-03-06 07:20:00
9:50 AM,50.0,35.6,58,30.33,-9999.0,Calm,Calm,-,N/A,,Clear,0,2013-03-06 07:50:00
10:20 AM,51.8,35.6,54,30.33,-9999.0,Calm,Calm,-,N/A,,Clear,0,2013-03-06 08:20:00
10:50 AM,53.6,33.8,47,30.30,-9999.0,Calm,Calm,-,N/A,,Clear,0,2013-03-06 08:50:00
11:20 AM,55.4,33.8,44,30.30,-9999.0,Calm,Calm,-,N/A,,Clear,0,2013-03-06 09:20:00
11:50 AM,55.4,33.8,44,30.27,-9999.0,Calm,Calm,-,N/A,,Clear,0,2013-03-06 09:50:00
12:20 PM,57.2,33.8,41,30.27,-9999.0,Calm,Calm,-,N/A,,Clear,0,2013-03-06 10:20:00
12:50 PM,57.2,33.8,41,30.27,-9999.0,Calm,Calm,-,N/A,,Clear,0,2013-03-06 10:50:00
1:20 PM,57.2,33.8,41,30.27,-9999.0,Calm,Calm,-,N/A,,Clear,0,2013-03-06 11:20:00
1:50 PM,57.2,35.6,44,30.24,-9999.0,SSW,4.6,-,N/A,,Clear,200,2013-03-06 11:50:00
2:20 PM,55.4,35.6,47,30.24,-9999.0,South,6.9,-,N/A,,Clear,190,2013-03-06 12:20:00
2:50 PM,55.4,35.6,47,30.24,-9999.0,SSW,5.8,-,N/A,,Clear,200,2013-03-06 12:50:00
3:20 PM,55.4,35.6,47,30.21,-9999.0,Calm,Calm,-,N/A,,Clear,0,2013-03-06 13:20:00
3:50 PM,55.4,37.4,51,30.21,-9999.0,SSW,4.6,-,N/A,,Clear,210,2013-03-06 13:50:00
4:20 PM,55.4,35.6,47,30.21,-9999.0,South,4.6,-,N/A,,Clear,190,2013-03-06 14:20:00
4:50 PM,53.6,35.6,51,30.18,-9999.0,South,4.6,-,N/A,,Clear,180,2013-03-06 14:50:00
5:20 PM,53.6,35.6,51,30.18,-9999.0,Calm,Calm,-,N/A,,Clear,0,2013-03-06 15:20:00
5:50 PM,53.6,35.6,51,30.18,-9999.0,Calm,Calm,-,N/A,,Clear,0,2013-03-06 15:50:00
6:20 PM,51.8,35.6,54,30.18,-9999.0,Calm,Calm,-,N/A,,Clear,0,2013-03-06 16:20:00
6:50 PM,51.8,35.6,54,30.15,-9999.0,Calm,Calm,-,N/A,,Clear,0,2013-03-06 16:50:00
7:20 PM,51.8,37.4,58,30.15,-9999.0,Calm,Calm,-,N/A,,Clear,0,2013-03-06 17:20:00
7:50 PM,50.0,37.4,62,30.15,-9999.0,Calm,Calm,-,N/A,,Clear,0,2013-03-06 17:50:00
8:20 PM,50.0,39.2,66,30.15,-9999.0,Calm,Calm,-,N/A,,Clear,0,2013-03-06 18:20:00
8:50 PM,50.0,39.2,66,30.15,-9999.0,Calm,Calm,-,N/A,,Clear,0,2013-03-06 18:50:00
9:20 PM,50.0,39.2,66,30.15,-9999.0,Calm,Calm,-,N/A,,Scattered Clouds,0,2013-03-06 19:20:00
9:50 PM,50.0,39.2,66,30.15,6.2,Calm,Calm,-,N/A,,Mostly Cloudy,0,2013-03-06 19:50:00
10:20 PM,50.0,37.4,62,30.15,6.2,Calm,Calm,-,N/A,,Mostly Cloudy,0,2013-03-06 20:20:00
10:50 PM,50.0,39.2,66,30.15,6.2,Calm,Calm,-,N/A,,Mostly Cloudy,0,2013-03-06 20:50:00
11:50 PM,50.0,39.2,66,30.15,6.2,Calm,Calm,-,N/A,,Mostly Cloudy,0,2013-03-06 21:50:00